Terminal Aerodrome Forecast
Issued by NWS

Home | Current Version | Previous Version | Text Only | Print | Product List | Glossary On
Versions: 1 2 3 4 5 6 7 8 9 10 11 12
000
FTUS45 KMSO 292320
TAFSMN
TAF
KSMN 292320Z 3000/3024 22005KT P6SM SCT120
     FM300600 VRB05KT P6SM VCSH BKN100
     FM300800 17008KT P6SM -SHRA BKN050 OVC080
      AMD LTD TO CLD VIS AND WIND=

USA.gov is the U.S. government's official web portal to all federal, state and local government web resources and services.